[[[{"header":{"parameterUnit":"kt","parameterCategory":2,"dx":1,"dy":1,"la1":30.253999710083008,"la2":30.299108505249023,"lo1":-89.0895004272461,"lo2":-89.04439544677734,"nx":28,"ny":28,"refTime":"2022-10-13T21:00:00:Z","depth":0,"parameterNumber":1,"parameterNumberName":"U-component_of_WINDS"},"data":[0.8327,0.8327,0.8336,0.834,0.8349,0.8353,0.8357,0.8364,0.8371,0.8376,0.8381,0.839,0.8399,0.8407,0.8411,0.8415,0.8416,0.841,0.8414,0.8434,0.8438,0.8441,0.8441,0.841,0.841,0.8392,0.8392,0.8391,0.8343,0.8352,0.8357,0.8367,0.8371,0.8383,0.8392,0.8394,0.8397,0.8406,0.8411,0.8416,0.8421,0.8433,0.8439,0.8438,0.8443,0.8439,0.8438,0.8439,0.8462,0.8462,0.8435,0.8435,0.8435,0.8435,0.8435,0.8435,0.8374,0.8373,0.8385,0.839,0.8398,0.8405,0.8405,0.8416,0.842,0.8428,0.8437,0.844,0.845,0.846,0.8466,0.8468,0.8473,0.8471,0.847,0.8469,0.8467,0.8491,0.8469,0.8469,0.8469,0.847,0.847,0,0.8398,0.8406,0.8411,0.8419,0.8423,0.8429,0.8436,0.8437,0.8455,0.8457,0.8461,0.8465,0.8472,0.8476,0.8483,0.8489,0.8499,0.8502,0.85,0.8494,0.8489,0.8491,0.8526,0.8501,0.8502,0.8502,0.8502,0.8502,0.8429,0.8427,0.8443,0.8446,0.8451,0.8455,0.8458,0.8474,0.8477,0.8487,0.8486,0.849,0.8495,0.8499,0.851,0.8514,0.8519,0.8509,0.8519,0.8515,0.8517,0.8517,0.8516,0.8505,0.8505,0.8505,0.8504,0,0.8445,0.8459,0.8459,0.8475,0.8479,0.8476,0.8489,0.8489,0.8498,0.8499,0.85,0.8514,0.8518,0.853,0.8536,0.8542,0.8537,0.8542,0.8534,0.8535,0.8526,0.8526,0.8497,0.8494,0.8528,0.8528,0.8527,0,0.8476,0.8473,0.8494,0.8493,0.849,0.8506,0.8502,0.851,0.8519,0.8519,0.8534,0.8534,0.855,0.8551,0.856,0.8559,0.856,0.8564,0.8566,0.8562,0.8561,0.8561,0.8562,0.8572,0.8572,0.8572,0.8572,0,0.8498,0.8506,0.8505,0.8509,0.8524,0.8523,0.8529,0.8538,0.8541,0.8547,0.8549,0.8554,0.8556,0.856,0.8571,0.8578,0.8569,0.8581,0.8573,0.8573,0.8569,0.8569,0.8542,0.8573,0.8573,0.8573,0.8573,0,0.8524,0.853,0.8527,0.854,0.8541,0.854,0.8547,0.8549,0.8557,0.8563,0.8567,0.8577,0.8577,0.8588,0.8588,0.8593,0.8595,0.8599,0.8599,0.8598,0.8609,0.859,0.8565,0.8562,0.8599,0.8599,0.86,0,0.8546,0.8546,0.8559,0.8555,0.8556,0.8572,0.8572,0.8579,0.8586,0.8588,0.8596,0.8598,0.8609,0.8611,0.8609,0.8617,0.861,0.8619,0.862,0.8619,0.8616,0.8593,0.8585,0.8569,0.8603,0.8602,0.8602,0,0.8564,0.8582,0.858,0.8585,0.8597,0.8598,0.8597,0.8602,0.8603,0.8609,0.8608,0.8611,0.8619,0.8622,0.8631,0.8628,0.8615,0.8636,0.8637,0.8631,0.8605,0.8598,0.8596,0.8621,0.8621,0.8621,0.8605,0,0.8598,0.86,0.8596,0.8605,0.8608,0.8606,0.8619,0.862,0.8629,0.8636,0.8635,0.8643,0.8647,0.8647,0.8655,0.8646,0.8649,0.8657,0.8666,0.8652,0.8646,0.8644,0.8673,0.8673,0.8674,0.8674,0,0,0.8614,0.8617,0.863,0.863,0.8633,0.8648,0.8645,0.865,0.8658,0.866,0.8666,0.867,0.8676,0.8673,0.867,0.8671,0.8671,0.8675,0.8659,0.8657,0.8655,0.865,0.8647,0.8675,0.8675,0.8675,0.8675,0,0.8629,0.8636,0.8633,0.8639,0.8647,0.8656,0.8655,0.8666,0.867,0.867,0.8681,0.8682,0.8685,0.8689,0.8691,0.8676,0.8684,0.8677,0.8664,0.8661,0.8659,0.8657,0.8651,0.8649,0.8676,0.8676,0.8676,0,0.8648,0.8657,0.8657,0.8664,0.867,0.8671,0.8685,0.8685,0.8685,0.87,0.8699,0.8705,0.8711,0.8707,0.8706,0.8711,0.8695,0.8702,0.8701,0.87,0.8698,0.8695,0.8693,0.8723,0.8723,0.8723,0,0,0.8659,0.866,0.8673,0.8668,0.8671,0.8683,0.8684,0.8692,0.8698,0.8701,0.8708,0.8713,0.8715,0.8715,0.8718,0.8711,0.8713,0.8708,0.8705,0.8704,0.8702,0.8699,0.8697,0.8724,0.8724,0.8724,0,0,0.8664,0.8679,0.8686,0.8682,0.8688,0.8699,0.8696,0.8704,0.8707,0.8709,0.8721,0.8723,0.8719,0.8724,0.8729,0.8721,0.8731,0.873,0.8718,0.8715,0.8713,0.8711,0.8742,0,0,0,0,0,0.8685,0.8677,0.8683,0.8685,0.8694,0.8696,0.8697,0.8708,0.8715,0.8711,0.8719,0.8727,0.8729,0.8734,0.8734,0.8728,0.873,0.8728,0.8728,0.8711,0.8708,0.8706,0,0,0,0,0,0,0.8685,0.8687,0.8684,0.8695,0.8697,0.8696,0.871,0.8713,0.8715,0.8717,0.8726,0.8727,0.8736,0.8734,0.8734,0.8728,0.8742,0.8729,0.8728,0.8727,0.871,0.8708,0.8706,0,0,0,0,0,0.8686,0.8687,0.8699,0.8695,0.8697,0.8709,0.8711,0.8713,0.8715,0.8726,0.8728,0.8722,0.8735,0.8736,0.8734,0.8728,0.8742,0.8742,0.8729,0.8728,0.8727,0.8709,0,0,0,0,0,0,0.8686,0.8689,0.8699,0.87,0.8698,0.8709,0.8711,0.8713,0.8723,0.8726,0.8723,0.8724,0.8735,0.8736,0.8736,0.8727,0.8742,0.8742,0.8742,0.8728,0.8727,0.8727,0,0,0,0,0,0,0.8688,0.8689,0.87,0.8704,0.8705,0.8709,0.8711,0.8711,0.8723,0.872,0.8722,0.8723,0.8734,0.8735,0.8736,0.8735,0.8742,0.8742,0.8742,0.8742,0.8728,0.8727,0,0,0,0,0,0,0.8689,0.869,0.8703,0.8704,0.8706,0.8717,0.8709,0.8717,0.8727,0.8719,0.8729,0.8729,0.8733,0.8734,0.8735,0.8734,0.8734,0.8742,0.8742,0.8742,0.8742,0,0,0,0,0,0,0,0.8689,0.868,0.8694,0.8705,0.8706,0.8709,0.8709,0.8709,0.8728,0.8728,0.8729,0.8729,0.8741,0.8742,0.8742,0.8733,0,0,0.8742,0.8742,0,0,0,0,0,0,0,0,0.868,0.868,0.8694,0.8694,0.8694,0.8709,0.8709,0.8709,0.8728,0.8728,0.8728,0.8729,0.8741,0.8742,0.8742,0,0,0,0,0,0,0,0,0,0,0,0,0,0,0,0.8694,0.8694,0,0.8709,0.8709,0.8709,0.8728,0.8728,0.8728,0.8729,0.8741,0.8742,0.8742,0,0,0,0,0,0,0,0,0,0,0,0,0,0,0,0,0,0,0,0,0,0,0,0,0,0,0,0,0,0,0,0,0,0,0,0,0,0,0,0,0,0,0,0,0,0,0,0,0,0,0,0,0,0,0,0,0,0,0,0,0,0,0,0,0,0,0,0,0]}],[{"header":{"parameterUnit":"kt","parameterCategory":2,"dx":1,"dy":1,"la1":30.253999710083008,"la2":30.299108505249023,"lo1":-89.0895004272461,"lo2":-89.04439544677734,"nx":28,"ny":28,"refTime":"2022-10-13T21:00:00:Z","depth":0,"parameterNumber":2,"parameterNumberName":"V-component_of_WINDS"},"data":[-6.1667,-6.1749,-6.1757,-6.1853,-6.1875,-6.1941,-6.1967,-6.2001,-6.2029,-6.2106,-6.2152,-6.2165,-6.2194,-6.2248,-6.2296,-6.23,-6.232,-6.2345,-6.2345,-6.2231,-6.2215,-6.22,-6.2182,-6.2349,-6.2349,-6.2463,-6.2464,-6.2465,-6.1587,-6.1611,-6.1664,-6.172,-6.1765,-6.1747,-6.1788,-6.1826,-6.1885,-6.1919,-6.1964,-6.2031,-6.2085,-6.2104,-6.2156,-6.2192,-6.2184,-6.2205,-6.2202,-6.2207,-6.2085,-6.2066,-6.2211,-6.2211,-6.2211,-6.2211,-6.2211,-6.2211,-6.1442,-6.149,-6.1528,-6.1585,-6.1615,-6.1651,-6.1697,-6.1714,-6.1763,-6.1819,-6.1816,-6.1881,-6.1914,-6.1977,-6.1999,-6.2049,-6.2026,-6.2049,-6.2055,-6.2061,-6.2068,-6.1905,-6.2057,-6.2057,-6.2056,-6.2056,-6.2056,0,-6.1337,-6.1341,-6.1391,-6.1444,-6.1485,-6.1526,-6.1563,-6.1592,-6.1596,-6.1637,-6.1695,-6.1729,-6.1796,-6.185,-6.1898,-6.1915,-6.1896,-6.1894,-6.191,-6.1913,-6.1911,-6.1914,-6.1715,-6.1889,-6.1887,-6.1886,-6.1886,-6.1885,-6.1192,-6.1246,-6.1288,-6.1322,-6.1345,-6.1399,-6.1432,-6.1432,-6.1467,-6.1512,-6.1553,-6.1607,-6.165,-6.174,-6.1754,-6.1802,-6.1793,-6.1859,-6.18,-6.1802,-6.1794,-6.1791,-6.1796,-6.187,-6.1872,-6.1874,-6.1875,0,-6.1109,-6.1119,-6.1205,-6.124,-6.125,-6.1307,-6.1335,-6.1381,-6.139,-6.1454,-6.1469,-6.1482,-6.1538,-6.1541,-6.1603,-6.1603,-6.1694,-6.1684,-6.1684,-6.1682,-6.1741,-6.1736,-6.1934,-6.196,-6.1787,-6.1788,-6.179,0,-6.0988,-6.1059,-6.1069,-6.1118,-6.1197,-6.1194,-6.1272,-6.1286,-6.1315,-6.1366,-6.1345,-6.1393,-6.1389,-6.1436,-6.1435,-6.151,-6.1522,-6.1526,-6.1524,-6.1527,-6.1527,-6.1544,-6.1535,-6.1519,-6.1518,-6.1517,-6.1516,0,-6.0857,-6.0944,-6.1025,-6.1046,-6.1088,-6.1125,-6.1143,-6.1174,-6.1206,-6.1247,-6.1267,-6.1314,-6.134,-6.1376,-6.1374,-6.1334,-6.1466,-6.141,-6.1469,-6.147,-6.1497,-6.1495,-6.1671,-6.1515,-6.1515,-6.1514,-6.1514,0,-6.076,-6.0804,-6.0918,-6.0952,-6.0975,-6.1026,-6.1074,-6.1119,-6.1152,-6.1156,-6.1187,-6.1173,-6.1238,-6.1183,-6.1272,-6.1221,-6.1247,-6.1256,-6.126,-6.1265,-6.1203,-6.1302,-6.147,-6.1487,-6.1272,-6.127,-6.1268,0,-6.0608,-6.0725,-6.0723,-6.083,-6.0885,-6.0859,-6.0916,-6.0946,-6.0955,-6.1001,-6.101,-6.1061,-6.102,-6.1036,-6.108,-6.1091,-6.1158,-6.1081,-6.1145,-6.1148,-6.1138,-6.1293,-6.1317,-6.1433,-6.1242,-6.1245,-6.1247,0,-6.049,-6.0541,-6.056,-6.0584,-6.0624,-6.0668,-6.0733,-6.0784,-6.0815,-6.085,-6.0904,-6.0975,-6.0947,-6.0973,-6.0965,-6.1011,-6.1112,-6.0974,-6.0975,-6.0999,-6.1229,-6.1252,-6.1272,-6.1097,-6.11,-6.1102,-6.1226,0,-6.0342,-6.0401,-6.0453,-6.0504,-6.0539,-6.0605,-6.0609,-6.0644,-6.0634,-6.0641,-6.072,-6.0742,-6.0791,-6.0813,-6.0802,-6.0906,-6.0888,-6.0857,-6.0802,-6.0904,-6.0944,-6.0961,-6.0742,-6.074,-6.0739,-6.0737,0,0,-6.0194,-6.0278,-6.0272,-6.0335,-6.0364,-6.0335,-6.0406,-6.0429,-6.0477,-6.0497,-6.0467,-6.057,-6.0589,-6.0683,-6.0715,-6.0734,-6.0753,-6.0716,-6.0855,-6.0868,-6.0881,-6.0924,-6.0942,-6.0735,-6.0734,-6.0734,-6.0734,0,-6.014,-6.0164,-6.0234,-6.026,-6.0296,-6.03,-6.0318,-6.0347,-6.0355,-6.0431,-6.0404,-6.045,-6.0531,-6.0555,-6.0578,-6.0706,-6.0681,-6.072,-6.0789,-6.0841,-6.0856,-6.087,-6.0916,-6.0932,-6.073,-6.073,-6.0731,0,-6.0025,-6.0049,-6.0083,-6.0147,-6.017,-6.0224,-6.0169,-6.0228,-6.0269,-6.0229,-6.0305,-6.0317,-6.0348,-6.0436,-6.0476,-6.0449,-6.0616,-6.0562,-6.0571,-6.0575,-6.0625,-6.0643,-6.0659,-6.0448,-6.0447,-6.0446,0,0,-5.9978,-6.0032,-6.0055,-6.0135,-6.0152,-6.0158,-6.0187,-6.0179,-6.0209,-6.0221,-6.0236,-6.0265,-6.0312,-6.0342,-6.0386,-6.0483,-6.0488,-6.0528,-6.0541,-6.0552,-6.0562,-6.0615,-6.0633,-6.0442,-6.0442,-6.0442,0,0,-5.9954,-5.9985,-5.997,-6.0064,-6.0095,-6.012,-6.0169,-6.015,-6.019,-6.0182,-6.0169,-6.0176,-6.0258,-6.027,-6.0221,-6.0366,-6.0312,-6.0324,-6.0355,-6.0372,-6.0385,-6.038,-6.0164,0,0,0,0,0,-5.99,-5.9982,-5.9968,-5.9984,-6.0062,-6.0129,-6.0138,-6.0131,-6.0094,-6.0133,-6.0142,-6.0113,-6.0242,-6.0198,-6.0213,-6.0267,-6.0395,-6.0403,-6.0411,-6.0475,-6.0492,-6.0507,0,0,0,0,0,0,-5.9907,-5.9926,-5.9965,-5.9995,-6.0012,-6.0126,-6.0061,-6.0061,-6.009,-6.0083,-6.0112,-6.0114,-6.0107,-6.019,-6.0203,-6.0255,-6.016,-6.0398,-6.0405,-6.0412,-6.0481,-6.0495,-6.0508,0,0,0,0,0,-5.9912,-5.9927,-6.0055,-5.9994,-6.0009,-6.0019,-6.0058,-6.0057,-6.0079,-6.0093,-6.0093,-6.0071,-6.0109,-6.012,-6.0198,-6.0249,-6.015,-6.0155,-6.0403,-6.0408,-6.0413,-6.0488,0,0,0,0,0,0,-5.9915,-5.9927,-6.0058,-6.0062,-5.9962,-6.0013,-6.002,-6.0054,-6.0086,-6.0088,-6.005,-6.0045,-6.0111,-6.0119,-6.0128,-6.0248,-6.0143,-6.0148,-6.0151,-6.0407,-6.0411,-6.0415,0,0,0,0,0,0,-5.9918,-5.9931,-6.006,-6.0021,-6.0021,-6.0007,-6.0014,-6.0078,-6.0087,-6.0042,-6.0038,-6.0047,-6.0097,-6.0119,-6.0126,-6.0226,-6.0137,-6.0142,-6.0145,-6.0147,-6.0411,-6.0414,0,0,0,0,0,0,-5.9923,-5.9934,-6.002,-6.002,-6.0019,-6.0066,-6.0063,-6.0142,-6.0056,-6.0041,-6.0048,-6.0044,-6.0098,-6.0105,-6.0124,-6.0222,-6.0225,-6.0137,-6.014,-6.0143,-6.0144,0,0,0,0,0,0,0,-5.9927,-5.9858,-6.0033,-6.0018,-6.0018,-6.0102,-6.0103,-6.0104,-6.0055,-6.0052,-6.0048,-6.0045,-6.0108,-6.0114,-6.0119,-6.0219,0,0,-6.0136,-6.0139,0,0,0,0,0,0,0,0,-5.9853,-5.9857,-6.0033,-6.0034,-6.0035,-6.0102,-6.0103,-6.0104,-6.0054,-6.0052,-6.0049,-6.0047,-6.011,-6.0114,-6.0119,0,0,0,0,0,0,0,0,0,0,0,0,0,0,0,-6.0033,-6.0034,0,-6.0102,-6.0103,-6.0104,-6.0054,-6.0052,-6.005,-6.0048,-6.0111,-6.0115,-6.0118,0,0,0,0,0,0,0,0,0,0,0,0,0,0,0,0,0,0,0,0,0,0,0,0,0,0,0,0,0,0,0,0,0,0,0,0,0,0,0,0,0,0,0,0,0,0,0,0,0,0,0,0,0,0,0,0,0,0,0,0,0,0,0,0,0,0,0,0,0]}]]]